User: anonymous   Login
Location: Leuk
(46.3174°N, 7.6341°E)
Time: 12:01:42
(UTC+00:00)
Language:

deb Delta 139 - Orbit

View from above orbital plane
View from above orbital plane
View from above satellite
View from above satellite

Ground track
Ground track

The orbit data is extracted from the following two-line orbital elements,

1 12294U 78026EN  21266.87787155  .00000174  00000-0  65750-4 0  9995
2 12294  98.3560 237.9635 0099060  60.8636 300.2424 14.39922235124988
Epoch (UTC): 23 September 2021 21:04:08
Eccentricity: 0.0099060
inclination: 98.3560°
perigee height: 688 km
apogee height: 829 km
right ascension of ascending node: 237.9635°
argument of perigee: 60.8636°
revolutions per day: 14.39922235
mean anomaly at epoch: 300.2424°
orbit number at epoch: 12498

The dashed part of the orbit path shows where the satellite is in the earth's shadow,  

DLR